EW0402 Weather Reports


time (UTC)temp
C
wind
direction
speed
KPH
gust
KPH
rain 1hr
cm
rain 24hr
cm
rain mn
cm
humidity
%
barometer
mb
20260906131529 26 165 1.6 4.8 0.00 0.00 0.00 96 1014.6
20260906130033 25 306 0.0 3.2 0.00 0.00 0.00 98 1014.5
20260906124520 25 234 0.0 3.2 0.00 0.00 0.00 98 1014.5
20260906123028 25 154 0.0 1.6 0.00 0.00 0.00 98 1014.3
20260906121515 24 154 0.0 1.6 0.00 0.00 0.00 97 1014.1
20260906120014 24 154 0.0 0.0 0.00 0.00 0.00 97 1014.0
20260906114512 23 154 0.0 1.6 0.00 0.00 0.00 97 1014.1
20260906113014 24 146 0.0 1.6 0.00 0.00 0.00 97 1013.7
20260906111509 23 240 0.0 0.0 0.00 0.00 0.00 97 1013.8
20260906110009 24 240 0.0 0.0 0.00 0.00 0.00 97 1013.7
20260906104518 24 240 0.0 0.0 0.00 0.00 0.00 97 1013.4
20260906103029 24 240 0.0 0.0 0.00 0.00 0.00 97 1013.1
20260906101508 24 240 0.0 0.0 0.00 0.00 0.00 97 1013.0
20260906100023 24 240 0.0 0.0 0.00 0.00 0.00 97 1013.2
20260906094507 24 240 0.0 0.0 0.00 0.00 0.00 96 1013.2
20260906093015 24 240 0.0 0.0 0.00 0.00 0.00 97 1013.0
20260906091517 24 240 0.0 0.0 0.00 0.00 0.00 96 1012.9
20260906090006 24 240 0.0 0.0 0.00 0.00 0.00 96 1012.9
20260906084506 24 240 0.0 0.0 0.00 0.00 0.00 96 1012.7
20260906083002 24 240 0.0 0.0 0.00 0.00 0.00 96 1012.8
20260906081502 24 240 0.0 0.0 0.00 0.00 0.00 96 1012.8
20260906080002 24 240 0.0 0.0 0.00 0.00 0.00 95 1012.9
20260906074501 24 240 0.0 0.0 0.00 0.00 0.00 96 1012.9
20260906073001 25 240 0.0 0.0 0.00 0.00 0.00 96 1012.7
20260906071600 25 240 0.0 0.0 0.00 0.00 0.00 96 1012.8
20260906070059 25 240 0.0 0.0 0.00 0.00 0.00 96 1012.8
20260906064559 25 240 0.0 3.2 0.00 0.00 0.00 96 1012.9
20260906063057 25 238 0.0 1.6 0.00 0.00 0.00 97 1012.9
20260906061555 25 238 0.0 3.2 0.00 0.00 0.00 96 1012.9
20260906060053 25 238 0.0 3.2 0.00 0.00 0.00 96 1013.0
20260906054604 25 238 0.0 0.0 0.00 0.00 0.00 95 1013.4
20260906053052 25 238 0.0 3.2 0.00 0.00 0.00 96 1013.2
20260906051550 25 238 0.0 3.2 0.00 0.00 0.00 96 1013.2
20260906050055 25 238 0.0 0.0 0.00 0.00 0.00 95 1013.4
20260906044547 25 238 0.0 0.0 0.00 0.00 0.00 95 1013.4
20260906043045 25 238 0.0 1.6 0.00 0.00 0.00 95 1013.5
20260906041543 25 238 0.0 0.0 0.00 0.00 0.00 94 1013.8
20260906040047 25 238 0.0 1.6 0.00 0.00 0.00 94 1013.9
20260906034548 25 238 0.0 0.0 0.00 0.00 0.00 94 1014.0
20260906033040 25 238 0.0 0.0 0.00 0.00 0.00 93 1014.2
20260906031603 25 238 0.0 0.0 0.00 0.00 0.00 93 1014.4
20260906030039 25 238 0.0 1.6 0.00 0.00 0.00 92 1014.4
20260906024554 26 238 0.0 0.0 0.00 0.00 0.00 92 1014.2
20260906023044 26 238 0.0 1.6 0.00 0.00 0.00 92 1013.8
20260906021537 26 238 0.0 0.0 0.00 0.00 0.00 91 1013.4
20260906020140 26 238 0.0 1.6 0.00 0.00 0.00 91 1013.2
20260906014537 26 238 0.0 1.6 0.00 0.00 0.00 90 1013.2
20260906013037 26 238 0.0 0.0 0.00 0.00 0.00 90 1013.0
20260906011535 26 238 0.0 3.2 0.00 0.00 0.00 89 1012.8
20260906010046 27 237 0.0 1.6 0.00 0.00 0.00 89 1012.8
20260906004535 27 237 0.0 3.2 0.00 0.00 0.00 88 1012.6
20260906003034 27 236 0.0 0.0 0.00 0.00 0.00 88 1012.6
20260906001536 27 236 0.0 0.0 0.00 0.00 0.00 87 1012.7
20260906000032 27 236 0.0 0.0 0.00 0.05 0.00 86 1012.6
20260905234532 28 236 0.0 0.0 0.00 0.05 0.00 86 1012.7
20260905233032 28 236 0.0 0.0 0.00 0.05 0.00 85 1012.6
20260905231531 28 235 0.0 0.0 0.00 0.05 0.00 84 1012.7
20260905230034 28 242 0.0 6.4 0.00 0.20 0.00 83 1012.7
20260905224529 29 126 1.6 3.2 0.00 0.20 0.00 83 1013.0
20260905223031 30 223 0.0 1.6 0.00 0.20 0.00 83 1013.3
20260905221528 30 221 0.0 6.4 0.00 0.20 0.00 82 1013.3
20260905220028 30 319 0.0 3.2 0.00 0.71 0.00 82 1013.3
20260905214527 30 274 0.0 3.2 0.00 0.71 0.00 79 1013.0
20260905213027 31 117 1.6 6.4 0.00 0.71 0.00 76 1013.0
20260905211551 31 346 1.6 6.4 0.00 0.71 0.00 77 1013.0
20260905210025 32 234 0.0 3.2 0.00 3.89 0.00 74 1012.9
20260905204525 32 234 0.0 4.8 0.00 3.89 0.00 71 1013.0
20260905203022 32 38 0.0 6.4 0.00 3.89 0.00 71 1013.2
20260905201530 32 265 0.0 4.8 0.00 3.89 0.00 71 1013.4
20260905200019 33 171 1.6 6.4 0.00 4.45 0.00 69 1013.5
20260905194516 33 267 1.6 9.7 0.00 4.45 0.00 74 1013.8
20260905193015 32 240 1.6 6.4 0.00 4.45 0.00 71 1013.9
20260905191512 33 73 1.6 6.4 0.00 4.45 0.00 73 1014.2
20260905190009 32 213 3.2 9.7 0.00 4.45 0.00 76 1014.2
20260905184507 32 264 0.0 9.7 0.00 4.45 0.00 75 1014.1
20260905183003 32 349 0.0 6.4 0.00 4.45 0.00 78 1014.3
20260905181559 32 170 0.0 6.4 0.00 4.45 0.00 79 1014.6
20260905180103 31 113 1.6 6.4 0.00 4.45 0.00 80 1014.9
20260905174555 31 313 1.6 4.8 0.00 4.45 0.00 81 1014.8
20260905173102 30 235 0.0 4.8 0.00 4.45 0.00 83 1015.2
20260905171551 30 332 0.0 6.4 0.00 4.45 0.00 83 1015.4
20260905170047 30 250 1.6 4.8 0.00 4.45 0.00 87 1015.6
20260905164543 29 225 1.6 3.2 0.00 4.45 0.00 88 1015.7
20260905163041 28 279 1.6 6.4 0.00 4.45 0.00 89 1016.0
20260905161538 28 84 0.0 4.8 0.00 4.45 0.00 88 1016.0
20260905160036 28 214 1.6 4.8 0.00 4.45 0.00 90 1016.1
20260905154535 28 246 0.0 8.0 0.00 4.45 0.00 91 1016.2
20260905153030 28 229 1.6 4.8 0.00 4.45 0.00 93 1016.4
20260905151530 28 269 0.0 3.2 0.00 4.45 0.00 92 1016.6
20260905150027 28 229 0.0 3.2 0.00 4.45 0.00 94 1016.3
20260905144524 27 184 1.6 6.4 0.00 4.45 0.00 96 1016.3
20260905143027 26 213 0.0 1.6 0.00 4.45 0.00 97 1016.2
20260905141525 26 213 0.0 3.2 0.00 4.45 0.00 97 1016.2
20260905140015 26 213 0.0 1.6 0.00 4.45 0.00 98 1016.4
20260905134512 25 209 0.0 1.6 0.00 4.45 0.00 97 1016.6
20260905133009 25 209 0.0 3.2 0.00 4.45 0.00 98 1016.6